Tunica, MS

10:04 AM CDT on August 17, 2017 (GMT -0500)
Tunica

Weather History for KUTA - April, 2014

Change the Weather History Date:

Monday, April 14, 2014

  Actual Average (KAWM) Record (KAWM)
Temperature  
Mean Temperature 55 °F -  
Max Temperature 68 °F 71 °F 86 °F (2006)
Min Temperature 42 °F 51 °F 35 °F (1980)
Degree Days  
Heating Degree Days 10    
Growing Degree Days 5 (Base 50)    
Moisture  
Dew Point 51 °F    
Average Humidity 89    
Maximum Humidity 94    
Minimum Humidity 70    
Precipitation  
Precipitation 0.52 in - - ()
Sea Level Pressure  
Sea Level Pressure 29.85 in    
Wind  
Wind Speed 12 mph (WNW)    
Max Wind Speed 23 mph    
Max Gust Speed 58 mph    
Visibility 9 miles    
Events Rain , Thunderstorm    
Averages and records for this station are not official NWS values.
T = Trace of Precipitation, MM = Missing Value Source: NWS Daily Summary

Daily Weather History Graph

Daily Weather History Graph

Search for Another Location

Airport or City:

Trip Planner

Search our weather history database for the weather conditions in past years. The results will help you decide how hot, cold, wet, or windy it might be!

Date:

Astronomy

Apr. 14, 2014 Rise Set
Actual Time 6:31 AM CDT 7:32 PM CDT
Civil Twilight 6:05 AM CDT 7:58 PM CDT
Nautical Twilight 5:34 AM CDT 8:29 PM CDT
Astronomical Twilight 5:02 AM CDT 9:01 PM CDT
Moon 7:12 PM CDT (4/14) 6:01 AM CDT (4/14)
Length of Visible Light 13h 53m
Length of Day
13h 01m
Full, 100% of the Moon is Illuminated
Apr 14
Full
Apr 15
Full
Apr 22
Last Quarter
Apr 29
New
May 6
First Quarter

Hourly Weather History & Observations

Time (CDT) Temp. Windchill Dew Point Humidity Pressure Visibility Wind Dir Wind Speed Gust Speed Precip Events Conditions
12:15 AM 68.0 °F - 62.6 °F 83% 29.74 in 10.0 mi South 10.4 mph 16.1 mph N/A Rain Light Rain
12:35 AM 68.0 °F - 60.8 °F 78% 29.72 in 10.0 mi South 13.8 mph 19.6 mph N/A Thunderstorm Thunderstorm
12:55 AM 68.0 °F - 60.8 °F 78% 29.72 in 10.0 mi South 16.1 mph 20.7 mph N/A Thunderstorm Overcast
1:15 AM 68.0 °F - 60.8 °F 78% 29.71 in 10.0 mi South 20.7 mph 26.5 mph N/A Thunderstorm Thunderstorm
1:35 AM 59.0 °F - 57.2 °F 94% 29.81 in 2.0 mi West 21.9 mph 57.5 mph 0.18 in Rain , Thunderstorm Heavy Thunderstorms and Rain
1:55 AM 59.0 °F - 57.2 °F 94% 29.81 in 7.0 mi West 15.0 mph 23.0 mph 0.24 in Rain Light Rain
2:15 AM 59.0 °F - 57.2 °F 94% 29.80 in 10.0 mi West 10.4 mph - N/A Rain Light Rain
2:35 AM 59.0 °F - 57.2 °F 94% 29.78 in 10.0 mi Calm Calm - N/A Rain Light Rain
2:55 AM 59.0 °F - 57.2 °F 94% 29.79 in 10.0 mi South 3.5 mph - 0.01 in Rain Light Rain
3:15 AM 59.0 °F - 55.4 °F 88% 29.77 in 10.0 mi SSE 3.5 mph - 0.01 in Rain Light Rain
3:35 AM 59.0 °F - 57.2 °F 94% 29.77 in 10.0 mi South 6.9 mph - 0.02 in Rain Light Rain
3:55 AM 59.0 °F - 57.2 °F 94% 29.77 in 10.0 mi SSE 10.4 mph - 0.02 in Rain Light Rain
4:15 AM 59.0 °F - 55.4 °F 88% 29.74 in 10.0 mi South 16.1 mph - N/A Rain Light Rain
4:35 AM 59.0 °F - 55.4 °F 88% 29.72 in 10.0 mi SSE 15.0 mph - N/A Rain Light Rain
4:55 AM 57.2 °F - 55.4 °F 94% 29.71 in 10.0 mi SE 11.5 mph - N/A   Mostly Cloudy
5:15 AM 57.2 °F - 55.4 °F 94% 29.75 in 10.0 mi South 8.1 mph - N/A   Mostly Cloudy
5:35 AM 57.2 °F - 55.4 °F 94% 29.76 in 10.0 mi South 9.2 mph - N/A   Light Drizzle
5:55 AM 57.2 °F - 55.4 °F 94% 29.73 in 10.0 mi SSE 12.7 mph - N/A Rain Light Rain
6:15 AM 57.2 °F - 55.4 °F 94% 29.77 in 10.0 mi SSE 10.4 mph - N/A   Scattered Clouds
6:35 AM 57.2 °F - 55.4 °F 94% 29.76 in 10.0 mi SSE 8.1 mph - N/A   Clear
6:55 AM 57.2 °F - 55.4 °F 94% 29.76 in 10.0 mi ESE 3.5 mph - N/A   Clear
7:15 AM 57.2 °F - 55.4 °F 94% 29.78 in 10.0 mi Calm Calm - N/A   Clear
7:35 AM 57.2 °F - 55.4 °F 94% 29.79 in 10.0 mi Calm Calm - N/A   Clear
7:55 AM 59.0 °F - 55.4 °F 88% 29.80 in 10.0 mi South 3.5 mph - N/A   Clear
8:15 AM 59.0 °F - 55.4 °F 88% 29.80 in 10.0 mi Calm Calm - N/A   Scattered Clouds
8:35 AM 59.0 °F - 57.2 °F 94% 29.82 in 10.0 mi Calm Calm - N/A   Scattered Clouds
8:55 AM 59.0 °F - 57.2 °F 94% 29.82 in 10.0 mi SE 3.5 mph - N/A   Mostly Cloudy
9:15 AM 59.0 °F - 57.2 °F 94% 29.85 in 10.0 mi South 3.5 mph - N/A   Overcast
9:35 AM 60.8 °F - 57.2 °F 88% 29.85 in 10.0 mi SSW 5.8 mph - N/A   Overcast
9:55 AM 60.8 °F - 57.2 °F 88% 29.85 in 10.0 mi SSW 6.9 mph - N/A   Overcast
10:15 AM 60.8 °F - 57.2 °F 88% 29.87 in 10.0 mi SW 4.6 mph - N/A   Overcast
10:35 AM 60.8 °F - 57.2 °F 88% 29.87 in 10.0 mi West 5.8 mph - N/A   Overcast
10:55 AM 60.8 °F - 57.2 °F 88% 29.87 in 10.0 mi West 4.6 mph - N/A   Overcast
11:15 AM 60.8 °F - 55.4 °F 82% 29.87 in 10.0 mi WSW 5.8 mph - N/A   Mostly Cloudy
11:35 AM 62.6 °F - 57.2 °F 82% 29.85 in 10.0 mi West 4.6 mph - N/A Thunderstorm Overcast
11:55 AM 62.6 °F - 57.2 °F 82% 29.84 in 10.0 mi Calm Calm - N/A   Mostly Cloudy
12:15 PM 62.6 °F - 55.4 °F 77% 29.85 in 10.0 mi West 3.5 mph - N/A   Mostly Cloudy
12:35 PM 59.0 °F - 53.6 °F 82% 29.84 in 10.0 mi North 15.0 mph - N/A   Overcast
12:55 PM 55.4 °F - 51.8 °F 88% 29.83 in 10.0 mi NNW 10.4 mph - N/A Thunderstorm Overcast
1:15 PM 55.4 °F - 51.8 °F 88% 29.83 in 10.0 mi North 10.4 mph - N/A Rain Light Rain
1:35 PM 53.6 °F - 51.8 °F 94% 29.82 in 10.0 mi NNW 12.7 mph - N/A Thunderstorm Overcast
1:55 PM 53.6 °F - 51.8 °F 94% 29.81 in 7.0 mi NNW 10.4 mph - N/A   Overcast
2:15 PM 53.6 °F - 51.8 °F 94% 29.82 in 10.0 mi NW 13.8 mph - N/A Thunderstorm Unknown
2:35 PM 53.6 °F - 50.0 °F 88% 29.84 in 7.0 mi NW 15.0 mph - N/A Rain , Thunderstorm Light Thunderstorms and Rain
2:55 PM 51.8 °F - 50.0 °F 94% 29.85 in 2.5 mi NW 16.1 mph - 0.01 in Rain , Thunderstorm Rain
3:15 PM 50.0 °F - 48.2 °F 94% 29.86 in 2.0 mi NW 20.7 mph 29.9 mph 0.01 in Rain , Thunderstorm Rain
3:35 PM 50.0 °F - 48.2 °F 94% 29.86 in 2.5 mi NW 17.3 mph - 0.02 in Rain , Thunderstorm Light Thunderstorms and Rain
3:55 PM 50.0 °F - 46.4 °F 87% 29.85 in 10.0 mi NNW 20.7 mph 28.8 mph 0.02 in Rain Light Rain
4:15 PM 50.0 °F - 46.4 °F 87% 29.84 in 7.0 mi NNW 16.1 mph 21.9 mph 0.01 in Rain Heavy Rain
4:35 PM 48.2 °F - 46.4 °F 93% 29.87 in 4.0 mi NW 19.6 mph - 0.07 in Rain Heavy Rain
4:55 PM 48.2 °F - 46.4 °F 93% 29.87 in 7.0 mi NNW 20.7 mph 24.2 mph 0.10 in Rain Light Rain
5:15 PM 46.4 °F 39.0 °F 44.6 °F 93% 29.90 in 10.0 mi NW 19.6 mph 25.3 mph 0.01 in Rain Light Rain
5:35 PM 46.4 °F 41.1 °F 44.6 °F 93% 29.91 in 5.0 mi NW 11.5 mph - 0.07 in Rain Rain
5:55 PM 46.4 °F 40.7 °F 44.6 °F 93% 29.93 in 4.0 mi NW 12.7 mph - 0.11 in Rain Light Rain
6:15 PM 46.4 °F 41.1 °F 44.6 °F 93% 29.94 in 10.0 mi NW 11.5 mph - N/A Rain Light Rain
6:35 PM 46.4 °F 38.7 °F 44.6 °F 93% 29.92 in 7.0 mi NNW 20.7 mph 26.5 mph 0.01 in   Light Drizzle
6:55 PM 46.4 °F 38.7 °F 42.8 °F 87% 29.91 in 7.0 mi NNW 20.7 mph - 0.01 in   Light Drizzle
7:15 PM 46.4 °F 38.3 °F 42.8 °F 87% 29.91 in 10.0 mi North 23.0 mph 27.6 mph N/A   Overcast
7:35 PM 46.4 °F 38.7 °F 42.8 °F 87% 29.94 in 10.0 mi NNW 20.7 mph - N/A   Mostly Cloudy
7:55 PM 46.4 °F 41.1 °F 42.8 °F 87% 29.96 in 10.0 mi NNW 11.5 mph - N/A   Overcast
8:15 PM 46.4 °F 39.2 °F 42.8 °F 87% 29.98 in 10.0 mi NNW 18.4 mph 21.9 mph N/A   Light Drizzle
8:35 PM 44.6 °F 36.1 °F 42.8 °F 93% 29.98 in 4.0 mi NNW 21.9 mph 27.6 mph N/A Rain Light Rain
8:55 PM 44.6 °F 37.4 °F 42.8 °F 93% 30.00 in 3.0 mi NNW 16.1 mph 26.5 mph N/A   Light Drizzle
9:15 PM 42.8 °F 35.4 °F 41.0 °F 93% 30.00 in 5.0 mi North 15.0 mph 25.3 mph N/A Rain Light Rain
9:35 PM 44.6 °F 37.4 °F 41.0 °F 87% 30.01 in 10.0 mi NNW 16.1 mph - N/A   Overcast
9:55 PM 44.6 °F 36.9 °F 39.2 °F 81% 30.01 in 10.0 mi NNW 18.4 mph 24.2 mph N/A   Overcast
10:15 PM 44.6 °F 36.6 °F 39.2 °F 81% 30.02 in 10.0 mi NNW 19.6 mph 25.3 mph N/A   Overcast
10:35 PM 44.6 °F 36.9 °F 37.4 °F 76% 30.02 in 10.0 mi NNW 18.4 mph - N/A   Overcast
10:55 PM 42.8 °F 33.8 °F 37.4 °F 81% 30.02 in 10.0 mi NNW 21.9 mph - N/A   Overcast
11:15 PM 42.8 °F 33.8 °F 37.4 °F 81% 30.03 in 10.0 mi NNW 21.9 mph 26.5 mph N/A   Overcast
11:35 PM 42.8 °F 34.5 °F 35.6 °F 76% 30.04 in 10.0 mi NNW 18.4 mph 26.5 mph N/A   Overcast
11:55 PM 42.8 °F 33.5 °F 33.8 °F 70% 30.05 in 10.0 mi NNW 23.0 mph - N/A   Overcast